User: anonymous   Login
Location: Unnamed
(48.6007°N, 2.4808°E)
Time: 10:36:01
(UTC+01:00)
Language:

FENGYUN 1C DEB - Orbit

View from above orbital plane
View from above orbital plane
View from above satellite
View from above satellite

Ground track
Ground track

The orbit data is extracted from the following two-line orbital elements,

1 30113U 99025RS  23334.43738789  .00009418  00000-0  36877-2 0  9992
2 30113  99.0478 136.5294 0050575  23.2761  31.1544 14.28973873872300
Epoch (UTC): 30 November 2023 10:29:50
Eccentricity: 0.0050575
inclination: 99.0478°
perigee height: 759 km
apogee height: 831 km
right ascension of ascending node: 136.5294°
argument of perigee: 23.2761°
revolutions per day: 14.28973873
mean anomaly at epoch: 31.1544°
orbit number at epoch: 87230

The dashed part of the orbit path shows where the satellite is in the earth's shadow,  

DLR